STARLINK-35357, 65799

Orbit data source: Space-Track

STARLINK-35357, 65799 is a payload satellite owned by SpaceX/Seattle (US) in SSO that was launched on Fri, 26 Sep 2025 UTC via an FALCON 9 launch vehicle from the Air Force Western Test Range (AFWTR). Payload-class satellites include a variety of spacecraft equipped with specific instruments for various scientific and technological missions. These include communications satellites like Starlink; space stations such as the ISS; scientific satellites like the Hubble; Earth observation satellites from companies like Planet Labs, Umbra, and HawkEye 360; GPS; miniature CubeSats for education and research; and military/defense satellites.

Loading next visibility...
Identifier
65799, 2025-218J
Orbit
SSO
Country
Flag of USUS
Related business
Manufacturer
SpaceX/Seattle
Mission
Operational Commercial Communications
Bus & Motor
STARLINK V2MO, Unknown motor
Mass
575 kg wet, ~530 kg dry
Launch date (UTC)
2025-09-26 (5 months ago)
Launch vehicle
FALCON 9
Launch site
Air Force Western Test Range (AFWTR)
Object type
Payload
Rocket body
Debris
Shape & HBR
Box + 2 Pan, 17.7 m
Radar Cross Section
36.964 m²

Expand to show TLE details & history
Last TLE update: 8 hours ago

TLE from 8 hours ago
0 STARLINK-35357
1 65799U 25218J   26062.61089527  .00005772  00000-0  40381-3 0  9998
2 65799  97.6031 286.9418 0002193  90.5819 269.5659 15.05657882 24059
Epoch: 2026-03-03T14:39Z
TLE epoch observation values (Epoch: 2026-03-03T14:39:41.351Z)
Latitude
-0.00002°
Longitude
-94.36797°
Altitude
552.564 km
Speed
7.585 km/s
True Right ascension
19h 07m 46s
True Declination
0° 00' 00"
Sunlit
Object was in daylight at epoch
Visualization orbit readout
Latitude
Unknown
Longitude
Unknown
Altitude
Unknown
Speed
Unknown
Apparent Right ascension
Unknown
Apparent Declination
Unknown
Sunlit
N/A
Visualization observer readout
Local Sidereal Time
02:42:10
Azimuth
Unknown
Elevation
Unknown
Doppler factor
Unknown
Orbital elements
Apogee altitude
547.999 km
Perigee altitude
544.962 km
Semi-major axis
6,924.617 km
Eccentricity
0.00022
Inclination
97.6031°
RAAN
286.9418°
Arg. of periapsis
90.5819°
True anomaly
269.54077°
Mean anomaly
269.5659°
Eccentric anomaly
269.55334°
Mean motion
3.7666 °/min
Orbital period
95.58 mins
BSTAR
0.00040381
Loading maneuver chart data...
Computing Atmospheric mass density...
Loading historical data...
Loading historical data...
Loading historical data...
Loading historical data...
Loading historical data...
Loading historical data...
Loading historical data...

Documentation

Showing up to 5 results
|